Regional Weather Roundup
Issued by NWS

Home | Current Version | Previous Version | Graphics & Text | Print | Product List | Glossary On
Versions: 1 2 3 4 5 6 7 8 9 10 11 12 13 14 15 16 17 18 19 20 21 22 23 24 25 26 27 28 29 30 31 32 33 34 35 36 37 38 39 40 41 42 43 44 45 46 47 48 49 50
000
ASUS45 KTFX 152304
RWRMT
MONTANA HOURLY WEATHER ROUNDUP
NATIONAL WEATHER SERVICE GREAT FALLS MT
504 PM MDT MON SEP 15 2014

NOTE: "FAIR" INDICATES FEW OR NO CLOUDS BELOW 12000 FEET WITH NO
SIGNIFICANT WEATHER AND/OR OBSTRUCTIONS TO VISIBILITY.

* THESE STATIONS ARE NOT UNDER NWS QUALITY CONTROL. THEY DO NOT
   REPORT WEATHER SUCH AS PRECIPITATION OR FOG.

MTZ001>007-043-160000-
WEST OF THE DIVIDE
CITY           SKY/WX    TMP DP  RH WIND       PRES   REMARKS
KALISPELL      CLEAR     75  34  22 S8        30.02F
MISSOULA       CLEAR     81  28  14 SE5       30.01F
BUTTE          CLEAR     77  25  14 NW12      30.13F
MULLAN PASS    CLEAR     72  25  17 VRB3      30.16F
* LINCOLN      N/A       79  22  12 SW7G13     N/A
* LOOKOUT PASS N/A       75  24  15 VRB7       N/A
* POLSON       N/A       80  33  18 S3         N/A
* RONAN APT    CLEAR     81  30  16 N5         N/A
* SEELEY LAKE  N/A       80  21  11 W8G16      N/A
* THOMP F APT  CLEAR     78  28  16 S13G19     N/A
$$

MTZ008-052>055-160000-
SOUTHWEST MONTANA
CITY           SKY/WX    TMP DP  RH WIND       PRES   REMARKS
BOZEMAN        CLEAR     79  30  17 CALM      30.09F
DILLON         CLEAR     79  25  14 W9        30.10S
* THREE FORKS  CLEAR     77  46  33 N/A        N/A
* BOULDER HILL N/A       73  29  20 NE8        N/A
* MONIDA PASS  N/A       72  22  15 NW11G20    N/A
* RAYNOLDS PAS N/A       74  60  62 SW9G17     N/A
* WHITEHALL    N/A       80  41  25 E3         N/A
* WISE RIVER   N/A       77  22  13 W13G20     N/A
$$

MTZ009>010-012-014-046-048-049-054-160000-
EAST SLOPES AND CENTRAL MONTANA
CITY           SKY/WX    TMP DP  RH WIND       PRES   REMARKS
CUT BANK       CLEAR     77  37  24 SW6       30.01F
GREAT FALLS    CLEAR     77  36  23 NE6       30.03S
HELENA         CLEAR     81  36  20 E5        30.04F
MALMSTROM AFB  CLEAR     75  34  22 SW3       30.04S
* CONRAD       CLEAR     77  37  24 N/A        N/A
* EAST GLACIER N/A       70  31  24 W11G18     N/A
* MONARCH      N/A       71  19  14 W9G17      N/A
* PENDROY      N/A       76  38  25 SW1        N/A
* ROGERS PASS  N/A       72  20  14 SE9G17     N/A
* SAINT MARY   N/A       73  33  23 S8G16      N/A
* SWEET GRASS  N/A       75  39  27 S8         N/A
$$

MTZ011-013-016-021-035-040-045-047-050-051-160000-
NORTH CENTRAL MONTANA
CITY           SKY/WX    TMP DP  RH WIND       PRES   REMARKS
HAVRE          CLEAR     73  43  34 SE6       30.01F
LEWISTOWN      CLEAR     75  39  27 N6        30.07S
* CHESTER      N/A       74  38  27 S2         N/A
* DENTON       N/A       75  38  26 N9         N/A
* GEYSER       N/A       75  31  20 W13        N/A
* JUDITH GAP   N/A       69  40  35 SE11       N/A
* LOMA         N/A       76  39  26 NW1        N/A
$$

MTZ017>020-022>027-061-062-160000-
NORTHEAST MONTANA
CITY           SKY/WX    TMP DP  RH WIND       PRES   REMARKS
GLASGOW        CLEAR     68  36  31 VRB5      30.05F
GLENDIVE       CLEAR     68  37  32 SW3       30.10S
JORDAN         CLEAR     72  37  28 S5        30.05F
SIDNEY         CLEAR     68  36  31 SW5       30.10S
WOLF POINT     CLEAR     72  30  21 SW6       30.06F
* BEAVER HILL  N/A       68  34  28 SW11       N/A
* CIRCLE       N/A       70  42  36 N/A        N/A
* LINDSAY DVD  N/A       67  34  29 S6         N/A
* NAVAJO       N/A       67  29  24 SW9G14     N/A
* SACO         N/A       70  38  31 SE8G13     N/A
$$

MTZ028>042-056>058-160000-
SOUTHCENTRAL AND SOUTHEAST MONTANA
CITY           SKY/WX    TMP DP  RH WIND       PRES   REMARKS
BAKER          CLEAR     70  41  35 S8        30.11F
BILLINGS       CLEAR     72  43  35 E5        30.07F
LIVINGSTON     CLEAR     81  34  18 SW6       30.08S
MILES CITY     CLEAR     72  37  28 E5        30.06F
* LAUREL APT   CLEAR     73  43  34 NE6        N/A
* ROUNDUP APT  CLEAR     73  41  32 N/A        N/A
* ALZADA       N/A       68  44  42 E8         N/A
* HYSHAM       N/A       73  34  24 W2         N/A
* LAME DEER    N/A       68  39  35 E2G8       N/A
* REED POINT   N/A       74  40  29 E4         N/A
* ROSCOE HILL  N/A       72  30  21 NE6        N/A
$$

REGIONAL REPORTS...DAKOTAS
CITY           SKY/WX    TMP DP  RH WIND       PRES   REMARKS
WILLISTON      CLEAR     68  32  26 S9        30.08F
DICKINSON      CLEAR     64  37  37 S9        30.11S
BEACH          N/A       66  36  33 S7        30.11F
CROSBY         CLEAR     68  32  26 SW9       30.08F
TIOGA          CLEAR     66  27  23 W9        30.12F
WATFORD CITY   CLEAR     68  32  26 SW9       30.07F
BISMARCK       CLEAR     68  36  31 SW10      30.15F
GRAND FORKS    FAIR      66  37  34 W10       30.10F
FARGO          CLEAR     64  36  35 SW9       30.16F
BUFFALO SD     CLEAR     68  39  35 S13       30.07F
RAPID CITY     CLEAR     68  43  40 S20       30.15F
$$

REGIONAL REPORTS...WYOMING/IDAHO/WASHINGTON
CITY           SKY/WX    TMP DP  RH WIND       PRES   REMARKS
GILLETTE       CLEAR     73  45  37 SE14      30.11F
SHERIDAN       CLEAR     73  45  37 NW6       30.08F
CODY           CLEAR     70  45  41 NE10      30.12S
YELLOWSTONE LA PTCLDY    66  28  24 W12G18    30.31F
SALMON         CLEAR     81  32  17 NW5       30.02F
MULLAN PASS    CLEAR     72  25  17 VRB3      30.16S
SAND POINT     CLEAR     77  36  23 CALM      29.97F
SPOKANE        PTCLDY    82  25  12 VRB3      29.96F

$$



USA.gov is the U.S. government's official web portal to all federal, state and local government web resources and services.